Location: Chiroubles
(46.1812°N, 4.6660°E)
Time: 03:25:26
(UTC+00:00)

Cosmos 1238 Rocket - Pass Details

Date: 15 August 2020
Orbit: 376 x 1027 km, 82.9° (Epoch: 27 September)

Event Time Altitude Azimuth Distance (km) Brightness Sun altitude
Exits shadow 20:30:43 21° 194° (SSW) 919 3.7 -15.8°
Maximum altitude 20:32:33 78° 278° (W) 393 2.1 -16.1°
Drops below altitude 10° 20:35:36 10° 6° (N) 1,439 5.4 -16.5°
Sets 20:37:41 0° 8° (N) 2,350 6.5 -16.7°
